GW4926 Weather Reports


time (UTC)temp
C
wind
direction
speed
KPH
gust
KPH
rain 1hr
cm
rain 24hr
cm
rain mn
cm
humidity
%
barometer
mb
20260503022004 9 0 0.0 0.0 0.00 0.00 0.15 96 1014.0
20260503021505 9 0 0.0 0.0 0.00 0.00 0.15 96 1014.0
20260503021003 9 0 0.0 0.0 0.00 0.00 0.15 96 1014.0
20260503020503 9 0 0.0 0.0 0.00 0.00 0.15 96 1014.0
20260503020004 9 0 0.0 0.0 0.00 0.00 0.15 96 1014.0
20260503015503 9 0 0.0 0.0 0.00 0.00 0.15 96 1014.0
20260503015004 10 0 0.0 0.0 0.00 0.00 0.15 96 1014.0
20260503014503 10 0 0.0 0.0 0.00 0.00 0.15 96 1014.0
20260503014003 10 214 0.0 1.6 0.00 0.00 0.15 95 1014.0
20260503013503 10 228 0.0 0.0 0.00 0.00 0.15 95 1014.0
20260503013003 10 0 0.0 0.0 0.00 0.00 0.15 95 1014.0
20260503012503 10 0 0.0 0.0 0.00 0.00 0.15 95 1014.0
20260503012003 10 0 0.0 0.0 0.00 0.00 0.15 95 1014.0
20260503011503 10 0 0.0 0.0 0.00 0.00 0.15 94 1014.0
20260503011004 10 0 0.0 0.0 0.00 0.00 0.15 94 1014.0
20260503010504 10 0 0.0 0.0 0.00 0.00 0.15 94 1013.0
20260503010003 10 0 0.0 0.0 0.00 0.00 0.15 94 1013.0
20260503005504 10 0 0.0 0.0 0.00 0.00 0.15 94 1013.0
20260503005004 10 0 0.0 0.0 0.00 0.00 0.15 94 1013.0
20260503004503 11 0 0.0 0.0 0.00 0.00 0.15 93 1013.0
20260503004004 11 0 0.0 0.0 0.00 0.00 0.15 92 1013.0
20260503003503 11 0 0.0 0.0 0.00 0.00 0.15 92 1013.0
20260503003003 11 0 0.0 0.0 0.00 0.00 0.15 91 1013.0
20260503002504 11 0 0.0 0.0 0.00 0.00 0.15 91 1013.0
20260503002003 12 0 0.0 0.0 0.00 0.00 0.15 90 1013.0
20260503001503 12 0 0.0 0.0 0.00 0.00 0.15 90 1013.0
20260503001003 12 0 0.0 0.0 0.00 0.00 0.15 90 1013.0
20260503000503 12 0 0.0 0.0 0.00 0.00 0.15 89 1013.0
20260503000003 12 0 0.0 0.0 0.00 0.00 0.15 89 1013.0
20260502235503 12 0 0.0 0.0 0.00 0.00 0.15 89 1013.0
20260502235003 12 0 0.0 0.0 0.00 0.00 0.15 88 1012.0
20260502234503 12 0 0.0 0.0 0.00 0.00 0.15 87 1012.0
20260502234003 13 0 0.0 0.0 0.00 0.00 0.15 87 1012.0
20260502233504 13 225 1.6 1.6 0.00 0.00 0.15 86 1012.0
20260502233003 13 210 0.0 0.0 0.00 0.00 0.15 86 1012.0
20260502232503 13 0 0.0 0.0 0.00 0.00 0.15 86 1012.0
20260502232003 13 0 0.0 0.0 0.00 0.00 0.15 85 1012.0
20260502231503 13 0 0.0 0.0 0.00 0.00 0.15 85 1012.0
20260502231003 13 0 0.0 0.0 0.00 0.00 0.15 85 1012.0
20260502230504 13 0 0.0 0.0 0.00 0.00 0.15 86 1012.0
20260502230003 13 0 0.0 0.0 0.00 0.00 0.15 87 1012.0
20260502225504 13 228 0.0 0.0 0.00 0.00 0.15 82 1012.0
20260502225004 13 0 0.0 0.0 0.00 0.00 0.15 87 1012.0
20260502224504 13 0 0.0 0.0 0.00 0.00 0.15 87 1012.0
20260502224003 13 166 0.0 1.6 0.00 0.00 0.15 87 1012.0
20260502223503 13 0 0.0 0.0 0.00 0.00 0.15 88 1012.0
20260502223003 13 124 0.0 0.0 0.00 0.00 0.15 87 1012.0
20260502222503 13 0 0.0 0.0 0.00 0.00 0.15 86 1012.0
20260502222004 13 225 1.6 1.6 0.00 0.00 0.15 87 1012.0
20260502221503 13 0 0.0 0.0 0.00 0.00 0.15 86 1012.0
20260502221003 13 0 0.0 0.0 0.00 0.00 0.15 87 1012.0
20260502220503 13 0 0.0 0.0 0.00 0.00 0.15 87 1012.0
20260502220003 13 0 0.0 0.0 0.00 0.00 0.15 86 1012.0
20260502215503 13 220 0.0 1.6 0.00 0.00 0.15 85 1012.0
20260502215003 13 0 0.0 0.0 0.00 0.00 0.15 83 1012.0
20260502214503 13 0 0.0 0.0 0.00 0.00 0.15 85 1012.0
20260502214003 13 0 0.0 0.0 0.00 0.00 0.15 82 1012.0
20260502213503 13 0 0.0 0.0 0.00 0.00 0.15 83 1012.0
20260502213003 13 0 0.0 0.0 0.00 0.00 0.15 81 1012.0
20260502212503 13 0 0.0 0.0 0.00 0.00 0.15 81 1012.0
20260502212003 13 215 0.0 0.0 0.00 0.00 0.15 81 1012.0
20260502211504 13 191 0.0 0.0 0.00 0.00 0.15 78 1012.0
20260502211003 13 0 0.0 0.0 0.00 0.00 0.15 79 1012.0
20260502210503 13 0 0.0 0.0 0.00 0.00 0.15 80 1012.0
20260502210003 13 0 0.0 0.0 0.00 0.00 0.15 79 1012.0
20260502205504 13 0 0.0 0.0 0.00 0.00 0.15 81 1012.0
20260502205004 13 0 0.0 0.0 0.00 0.00 0.15 84 1012.0
20260502204503 13 240 0.0 1.6 0.00 0.00 0.15 82 1012.0
20260502204003 13 236 0.0 1.6 0.00 0.00 0.15 80 1012.0
20260502203503 13 0 0.0 0.0 0.00 0.00 0.15 80 1012.0
20260502203003 13 0 0.0 0.0 0.00 0.00 0.15 82 1012.0
20260502202503 13 0 0.0 0.0 0.00 0.00 0.15 80 1012.0
20260502202004 13 0 0.0 0.0 0.00 0.00 0.15 81 1012.0
20260502201503 14 0 0.0 0.0 0.00 0.00 0.15 77 1012.0
20260502201003 14 0 0.0 0.0 0.00 0.00 0.15 78 1012.0
20260502200503 14 0 0.0 0.0 0.00 0.00 0.15 77 1012.0
20260502200004 14 172 0.0 0.0 0.00 0.00 0.15 77 1012.0
20260502195504 13 187 0.0 1.6 0.00 0.00 0.15 82 1012.0
20260502195003 13 0 0.0 0.0 0.00 0.00 0.15 82 1012.0
20260502194504 13 0 0.0 0.0 0.00 0.00 0.15 81 1012.0
20260502194003 13 0 0.0 0.0 0.00 0.00 0.15 84 1012.0
20260502193504 13 47 0.0 0.0 0.00 0.00 0.15 83 1012.0
20260502193003 13 48 0.0 1.6 0.00 0.00 0.15 82 1012.0
20260502192503 13 0 0.0 0.0 0.00 0.00 0.15 83 1012.0
20260502192005 13 82 0.0 0.0 0.00 0.00 0.15 84 1012.0
20260502191504 13 0 0.0 0.0 0.00 0.00 0.15 79 1012.0
20260502191003 13 170 0.0 0.0 0.00 0.00 0.15 81 1012.0
20260502190504 13 225 0.0 1.6 0.00 0.00 0.15 82 1012.0
20260502190004 13 0 0.0 0.0 0.00 0.00 0.15 79 1012.0
20260502185503 13 0 0.0 0.0 0.00 0.00 0.15 79 1012.0
20260502185003 13 318 0.0 1.6 0.00 0.00 0.15 84 1013.0
20260502184503 13 0 0.0 0.0 0.00 0.00 0.15 84 1013.0
20260502184003 13 220 0.0 1.6 0.00 0.00 0.15 81 1013.0
20260502183503 13 0 0.0 0.0 0.00 0.00 0.15 83 1013.0
20260502183004 13 0 0.0 0.0 0.00 0.00 0.15 83 1013.0
20260502182504 13 0 0.0 0.0 0.00 0.00 0.15 83 1013.0
20260502182003 13 0 0.0 0.0 0.00 0.00 0.15 85 1013.0
20260502181503 13 173 0.0 1.6 0.00 0.00 0.15 84 1013.0
20260502181003 13 0 0.0 0.0 0.00 0.00 0.15 86 1013.0
20260502180504 13 140 0.0 0.0 0.00 0.00 0.15 87 1013.0
20260502170503 12 0 0.0 0.0 0.00 0.00 0.15 87 1013.0
20260502164005 12 197 1.6 1.6 0.00 0.00 0.15 89 1014.0
20260502163503 12 0 0.0 0.0 0.00 0.00 0.15 90 1014.0
20260502163003 12 0 0.0 0.0 0.00 0.00 0.15 88 1014.0
20260502162503 12 0 0.0 0.0 0.00 0.00 0.15 88 1014.0
20260502162003 12 96 1.6 1.6 0.00 0.00 0.13 91 1014.0
20260502161504 12 0 0.0 0.0 0.00 0.00 0.13 89 1014.0
20260502161004 12 27 0.0 0.0 0.00 0.00 0.13 91 1014.0
20260502160504 12 0 0.0 0.0 0.00 0.00 0.13 91 1014.0
20260502152003 12 0 0.0 0.0 0.00 0.00 0.13 94 1014.0
20260502151504 12 217 0.0 1.6 0.00 0.00 0.13 94 1014.0
20260502151003 12 0 0.0 0.0 0.00 0.00 0.13 94 1014.0
20260502150503 12 0 0.0 0.0 0.03 0.00 0.13 94 1014.0
20260502130505 11 0 0.0 0.0 0.00 0.00 0.05 94 1013.0
20260502123503 11 0 0.0 0.0 0.00 0.00 0.10 95 1013.0
20260502123003 11 0 0.0 0.0 0.00 0.00 0.10 95 1013.0
20260502122504 11 0 0.0 0.0 0.00 0.00 0.10 95 1013.0
20260502122003 11 0 0.0 0.0 0.00 0.00 0.08 95 1013.0
20260502121504 11 0 0.0 0.0 0.00 0.00 0.08 95 1013.0
20260502121006 11 0 0.0 0.0 0.00 0.00 0.08 95 1013.0
20260502120503 11 0 0.0 0.0 0.03 0.00 0.08 95 1013.0
20260502115503 11 0 0.0 0.0 0.00 0.00 0.08 95 1013.0
20260502115003 11 0 0.0 0.0 0.08 0.00 0.05 95 1013.0
20260502114503 11 63 0.0 0.0 0.03 0.00 0.05 95 1013.0
20260502114004 11 0 0.0 0.0 0.00 0.00 0.05 95 1013.0
20260502113504 11 0 0.0 0.0 0.00 0.00 0.05 95 1013.0
20260502113004 11 0 0.0 0.0 0.03 0.00 0.05 95 1013.0
20260502112503 11 0 0.0 0.0 0.00 0.00 0.05 95 1013.0
20260502112003 11 0 0.0 0.0 0.03 0.00 0.05 95 1013.0
20260502111503 11 0 0.0 0.0 0.03 0.00 0.05 95 1013.0
20260502111003 11 0 0.0 0.0 0.03 0.00 0.05 95 1013.0
20260502110505 11 0 0.0 0.0 0.03 0.00 0.03 95 1013.0
20260502110003 11 0 0.0 0.0 0.00 0.00 0.03 95 1013.0
20260502105503 11 0 0.0 0.0 0.05 0.00 0.03 95 1013.0
20260502105004 11 0 0.0 0.0 0.03 0.00 0.03 95 1013.0
20260502104503 11 0 0.0 0.0 0.03 0.00 0.03 95 1013.0
20260502104003 11 0 0.0 0.0 0.03 0.00 0.03 95 1013.0
20260502103504 11 0 0.0 0.0 0.03 0.00 0.00 94 1013.0
20260502103003 11 232 0.0 0.0 0.03 0.00 0.00 94 1013.0
20260502102503 11 0 0.0 0.0 0.03 0.00 0.00 94 1013.0
20260502102004 11 0 0.0 0.0 0.00 0.00 0.00 94 1013.0
20260502101504 11 0 0.0 0.0 0.00 0.00 0.00 93 1013.0
20260502101004 11 0 0.0 0.0 0.00 0.00 0.00 94 1013.0
20260502100503 11 27 0.0 0.0 0.00 0.00 0.00 94 1013.0
20260502091504 11 0 0.0 0.0 0.00 0.00 0.00 94 1013.0
20260502091003 11 0 0.0 0.0 0.00 0.00 0.00 94 1013.0
20260502090504 11 0 0.0 0.0 0.00 0.00 0.00 94 1013.0
20260502071503 11 65 1.6 1.6 0.00 0.00 0.00 95 1012.0
20260502071004 11 49 0.0 1.6 0.00 0.00 0.00 95 1012.0
20260502070503 11 0 0.0 0.0 0.00 0.00 0.00 95 1012.0
20260502070004 11 0 0.0 0.0 0.00 0.00 0.00 95 1012.0
20260502065504 11 0 0.0 0.0 0.00 0.00 0.00 95 1012.0
20260502065003 11 0 0.0 0.0 0.00 0.00 0.00 95 1012.0
20260502064504 11 0 0.0 0.0 0.00 0.00 0.00 95 1012.0
20260502064003 11 0 0.0 0.0 0.00 0.00 0.00 95 1012.0
20260502063504 11 0 0.0 0.0 0.00 0.00 0.00 95 1012.0
20260502063003 11 0 0.0 0.0 0.00 0.00 0.00 95 1012.0
20260502062503 11 0 0.0 0.0 0.00 0.00 0.00 95 1012.0
20260502062003 11 0 0.0 0.0 0.00 0.00 0.00 95 1012.0
20260502061504 11 111 0.0 0.0 0.00 0.00 0.00 95 1012.0
20260502061003 11 0 0.0 0.0 0.00 0.00 0.00 95 1012.0
20260502060503 11 0 0.0 0.0 0.00 0.00 0.00 94 1012.0
20260502060004 11 0 0.0 0.0 0.00 0.00 0.00 94 1013.0
20260502055503 11 0 0.0 0.0 0.00 0.00 0.00 94 1012.0
20260502055003 11 0 0.0 0.0 0.00 0.00 0.00 94 1012.0
20260502054503 11 0 0.0 0.0 0.00 0.00 0.00 94 1013.0
20260502054004 11 0 0.0 0.0 0.00 0.00 0.00 94 1013.0
20260502053503 11 0 0.0 0.0 0.00 0.00 0.00 94 1013.0
20260502053004 11 0 0.0 0.0 0.00 0.00 0.00 94 1013.0
20260502052503 11 0 0.0 0.0 0.00 0.00 0.00 94 1013.0
20260502052003 11 0 0.0 0.0 0.00 0.00 0.00 94 1013.0
20260502051504 11 0 0.0 0.0 0.00 0.00 0.00 94 1013.0
20260502051004 11 0 0.0 0.0 0.00 0.00 0.00 94 1013.0
20260502050504 11 0 0.0 0.0 0.00 0.00 0.00 94 1013.0
20260502050005 11 0 0.0 0.0 0.00 0.00 0.00 94 1013.0
20260502045052 11 0 0.0 0.0 0.00 0.00 0.00 94 1013.0
20260502044504 11 0 0.0 0.0 0.00 0.00 0.00 94 1013.0
20260502044003 11 0 0.0 0.0 0.00 0.00 0.00 94 1013.0
20260502043505 11 0 0.0 0.0 0.00 0.00 0.00 94 1013.0
20260502043005 11 0 0.0 0.0 0.00 0.00 0.00 94 1013.0
20260502042503 11 0 0.0 0.0 0.00 0.00 0.00 93 1013.0
20260502042003 11 0 0.0 0.0 0.00 0.00 0.00 93 1013.0
20260502041504 11 0 0.0 0.0 0.00 0.00 0.00 93 1013.0
20260502041003 11 0 0.0 0.0 0.00 0.00 0.00 93 1013.0
20260502040504 11 0 0.0 0.0 0.00 0.00 0.00 93 1013.0
20260502040004 11 0 0.0 0.0 0.00 0.00 0.00 93 1013.0
20260502035503 11 0 0.0 0.0 0.00 0.00 0.00 93 1013.0
20260502035004 11 0 0.0 0.0 0.00 0.00 0.00 93 1013.0
20260502034503 11 0 0.0 0.0 0.00 0.00 0.00 93 1013.0
20260502034003 11 0 0.0 0.0 0.00 0.00 0.00 92 1013.0
20260502033504 11 52 0.0 1.6 0.00 0.00 0.00 92 1013.0
20260502033003 11 0 0.0 0.0 0.00 0.00 0.00 92 1013.0
20260502032503 11 0 0.0 0.0 0.00 0.00 0.00 92 1013.0
20260502032004 11 0 0.0 0.0 0.00 0.00 0.00 92 1013.0
20260502031503 11 0 0.0 0.0 0.00 0.00 0.00 92 1013.0
20260502031003 11 0 0.0 0.0 0.00 0.00 0.00 92 1013.0
20260502030508 11 0 0.0 0.0 0.00 0.00 0.00 91 1013.0
20260502030003 11 0 0.0 0.0 0.00 0.00 0.00 91 1014.0
20260502025503 11 0 0.0 0.0 0.00 0.00 0.00 91 1014.0
20260502025003 11 0 0.0 0.0 0.00 0.00 0.00 91 1014.0
20260502024504 11 0 0.0 0.0 0.00 0.00 0.00 91 1014.0
20260502024004 11 0 0.0 0.0 0.00 0.00 0.00 91 1014.0
20260502023503 11 0 0.0 0.0 0.00 0.00 0.00 90 1014.0
20260502023003 11 0 0.0 0.0 0.00 0.00 0.00 90 1014.0
20260502022504 11 0 0.0 0.0 0.00 0.00 0.00 90 1014.0